TVF8496 LFPO-DTTJ

Flight info

Callsign TVF8496
Flight time 2h 43m
Altitude 37000
Route ERIXU DCT ETAMO DCT ADEKA DCT MOKDI DCT MEN DCT AMLIR DCT FJR DCT DIVKO DCT JUSQO DCT FIRRA/N0450F390 DCT NAFOQ DCT SALMA UG6 DIMAO UZ147 KIRAS A856 TINAP
Aircraft B738/M-SDE2E3FGHIRWXY/LB1

Departure

Time 2026-04-21 18:56
Airport Paris-Orly Airport (LFPO)

Arrival

Time 2026-04-21 21:39
Airport Djerba Zarzis International Airport (DTTJ)
Time Latitude Longitude Altitude Speed Heading
2026-04-21 18:12 48.72296 2.35940 280 ft 0 kts 180°
2026-04-21 18:12 48.72296 2.35941 280 ft 0 kts 180°
2026-04-21 18:14 48.72296 2.35940 280 ft 0 kts 180°
2026-04-21 18:15 48.72296 2.35941 279 ft 0 kts 180°
2026-04-21 18:15 48.72296 2.35940 279 ft 0 kts 180°
2026-04-21 18:16 48.72296 2.35941 279 ft 0 kts 180°
2026-04-21 18:17 48.72296 2.35940 279 ft 0 kts 180°
2026-04-21 18:20 48.72296 2.35941 279 ft 0 kts 180°
2026-04-21 18:20 48.72296 2.35940 279 ft 0 kts 180°
2026-04-21 18:20 48.72296 2.35941 279 ft 0 kts 180°
2026-04-21 18:20 48.72296 2.35940 279 ft 0 kts 180°
2026-04-21 18:21 48.72296 2.35941 279 ft 0 kts 180°
2026-04-21 18:22 48.72296 2.35940 279 ft 0 kts 180°
2026-04-21 18:23 48.72296 2.35941 279 ft 0 kts 180°
2026-04-21 18:23 48.72296 2.35940 279 ft 0 kts 180°
2026-04-21 18:25 48.72296 2.35941 279 ft 0 kts 180°
2026-04-21 18:25 48.72296 2.35940 279 ft 0 kts 180°
2026-04-21 18:26 48.72296 2.35941 279 ft 0 kts 180°
2026-04-21 18:27 48.72296 2.35940 279 ft 0 kts 180°
2026-04-21 18:29 48.72296 2.35941 279 ft 0 kts 180°
2026-04-21 18:29 48.72296 2.35940 279 ft 0 kts 180°
2026-04-21 18:31 48.72296 2.35941 279 ft 0 kts 180°
2026-04-21 18:32 48.72296 2.35940 279 ft 0 kts 180°
2026-04-21 18:32 48.72296 2.35941 279 ft 0 kts 180°
2026-04-21 18:32 48.72296 2.35940 279 ft 0 kts 180°
2026-04-21 18:33 48.72296 2.35941 279 ft 0 kts 180°
2026-04-21 18:33 48.72296 2.35940 279 ft 0 kts 180°
2026-04-21 18:34 48.72296 2.35941 279 ft 0 kts 180°
2026-04-21 18:34 48.72296 2.35940 279 ft 0 kts 180°
2026-04-21 18:35 48.72296 2.35941 279 ft 0 kts 180°
2026-04-21 18:36 48.72296 2.35940 279 ft 0 kts 180°
2026-04-21 18:36 48.72296 2.35941 279 ft 0 kts 180°
2026-04-21 18:37 48.72296 2.35940 279 ft 0 kts 180°
2026-04-21 18:38 48.72296 2.35941 279 ft 0 kts 180°
2026-04-21 18:38 48.72296 2.35940 279 ft 0 kts 180°
2026-04-21 18:40 48.72296 2.35941 279 ft 0 kts 180°
2026-04-21 18:40 48.72296 2.35940 279 ft 0 kts 180°
2026-04-21 18:41 48.72296 2.35941 279 ft 0 kts 180°
2026-04-21 18:41 48.72296 2.35940 279 ft 0 kts 180°
2026-04-21 18:42 48.72296 2.35941 279 ft 0 kts 180°
2026-04-21 18:42 48.72296 2.35940 279 ft 0 kts 180°
2026-04-21 18:42 48.72296 2.35941 279 ft 0 kts 180°
2026-04-21 18:43 48.72296 2.35940 279 ft 0 kts 180°
2026-04-21 18:43 48.72296 2.35941 279 ft 0 kts 180°
2026-04-21 18:44 48.72296 2.35940 279 ft 0 kts 180°
2026-04-21 18:44 48.72296 2.35941 279 ft 0 kts 180°
2026-04-21 18:44 48.72296 2.35940 279 ft 0 kts 180°
2026-04-21 18:45 48.72296 2.35941 279 ft 0 kts 180°
2026-04-21 18:47 48.72301 2.35940 279 ft 2 kts 180°
2026-04-21 18:47 48.72316 2.35940 279 ft 2 kts 180°
2026-04-21 18:47 48.72331 2.35940 279 ft 2 kts 180°
2026-04-21 18:47 48.72346 2.35940 280 ft 2 kts 188°
2026-04-21 18:48 48.72360 2.35948 280 ft 2 kts 214°
2026-04-21 18:48 48.72371 2.35964 280 ft 2 kts 237°
2026-04-21 18:48 48.72376 2.35978 280 ft 0 kts 252°
2026-04-21 18:48 48.72377 2.35988 280 ft 0 kts 255°
2026-04-21 18:51 48.72375 2.35972 280 ft 4 kts 255°
2026-04-21 18:51 48.72360 2.35889 279 ft 9 kts 254°
2026-04-21 18:51 48.72341 2.35784 277 ft 10 kts 254°
2026-04-21 18:51 48.72321 2.35681 277 ft 9 kts 248°
2026-04-21 18:52 48.72283 2.35606 277 ft 8 kts 217°
2026-04-21 18:52 48.72231 2.35573 278 ft 6 kts 189°
2026-04-21 18:52 48.72188 2.35589 278 ft 7 kts 158°
2026-04-21 18:52 48.72131 2.35627 278 ft 10 kts 154°
2026-04-21 18:53 48.72069 2.35683 277 ft 9 kts 140°
2026-04-21 18:53 48.72031 2.35749 279 ft 6 kts 123°
2026-04-21 18:53 48.72010 2.35801 280 ft 5 kts 120°
2026-04-21 18:53 48.71991 2.35850 280 ft 6 kts 119°
2026-04-21 18:54 48.71962 2.35930 280 ft 8 kts 109°
2026-04-21 18:54 48.71965 2.35996 280 ft 0 kts 74°
2026-04-21 18:55 48.72023 2.36304 280 ft 64 kts 74°
2026-04-21 18:55 48.72200 2.37272 287 ft 126 kts 73°
2026-04-21 18:55 48.72486 2.38809 376 ft 168 kts 74°
2026-04-21 18:56 48.72776 2.40416 1310 ft 154 kts 75°
2026-04-21 18:56 48.73042 2.41904 2160 ft 144 kts 75°
2026-04-21 18:56 48.73319 2.43410 2538 ft 156 kts 74°
2026-04-21 18:56 48.73613 2.45016 2952 ft 165 kts 75°
2026-04-21 18:57 48.73929 2.46742 3284 ft 179 kts 75°
2026-04-21 18:57 48.74172 2.48671 3656 ft 194 kts 85°
2026-04-21 18:57 48.74207 2.50784 4032 ft 210 kts 88°
2026-04-21 18:57 48.74237 2.53064 4518 ft 221 kts 86°
2026-04-21 18:58 48.74302 2.55431 4937 ft 235 kts 86°
2026-04-21 18:58 48.74059 2.57897 5489 ft 246 kts 110°
2026-04-21 18:58 48.72981 2.59937 6147 ft 260 kts 137°
2026-04-21 18:58 48.71286 2.61107 6784 ft 275 kts 161°
2026-04-21 18:59 48.69395 2.61621 7380 ft 282 kts 166°
2026-04-21 18:59 48.67453 2.62031 7986 ft 287 kts 169°
2026-04-21 18:59 48.65445 2.62026 8603 ft 295 kts 186°
2026-04-21 18:59 48.63489 2.60985 9222 ft 302 kts 211°
2026-04-21 19:00 48.61940 2.58917 9872 ft 303 kts 230°
2026-04-21 19:00 48.60605 2.56467 10499 ft 305 kts 232°
2026-04-21 19:00 48.59240 2.53931 10827 ft 319 kts 232°
2026-04-21 19:00 48.57797 2.51280 11146 ft 333 kts 231°
2026-04-21 19:01 48.56292 2.48538 11443 ft 348 kts 231°
2026-04-21 19:01 48.54716 2.45677 11727 ft 363 kts 231°
2026-04-21 19:01 48.53055 2.42733 12031 ft 376 kts 229°
2026-04-21 19:01 48.51082 2.40038 12375 ft 391 kts 218°
2026-04-21 19:02 48.48821 2.37789 13012 ft 396 kts 212°
2026-04-21 19:02 48.46443 2.35745 13690 ft 398 kts 211°
2026-04-21 19:02 48.44015 2.33758 14319 ft 402 kts 211°
2026-04-21 19:02 48.41528 2.31718 14931 ft 406 kts 212°
2026-04-21 19:03 48.39066 2.29656 15531 ft 410 kts 213°
2026-04-21 19:03 48.36584 2.27533 16213 ft 411 kts 214°
2026-04-21 19:03 48.34097 2.25377 16813 ft 415 kts 214°
2026-04-21 19:03 48.31550 2.23371 17389 ft 421 kts 209°
2026-04-21 19:04 48.28757 2.21981 17899 ft 434 kts 195°
2026-04-21 19:04 48.25713 2.21492 18458 ft 441 kts 187°
2026-04-21 19:04 48.22639 2.21294 18989 ft 446 kts 186°
2026-04-21 19:04 48.19534 2.21193 19532 ft 452 kts 182°
2026-04-21 19:05 48.16381 2.21698 20028 ft 461 kts 172°
2026-04-21 19:05 48.13264 2.22959 20603 ft 466 kts 163°
2026-04-21 19:05 48.10212 2.24629 21099 ft 470 kts 162°
2026-04-21 19:05 48.07092 2.26006 21559 ft 471 kts 171°
2026-04-21 19:06 48.03822 2.26781 22048 ft 471 kts 178°
2026-04-21 19:06 48.00572 2.27141 22608 ft 471 kts 181°
2026-04-21 19:06 47.97299 2.27305 23083 ft 473 kts 183°
2026-04-21 19:06 47.94044 2.27395 23538 ft 476 kts 184°
2026-04-21 19:07 47.90696 2.27477 24075 ft 479 kts 184°
2026-04-21 19:07 47.87381 2.27571 24514 ft 482 kts 183°
2026-04-21 19:07 47.83982 2.27758 24919 ft 489 kts 180°
2026-04-21 19:07 47.80586 2.28351 25346 ft 495 kts 175°
2026-04-21 19:08 47.77205 2.29280 25829 ft 499 kts 172°
2026-04-21 19:08 47.73810 2.30397 26219 ft 503 kts 171°
2026-04-21 19:08 47.70364 2.31616 26629 ft 506 kts 170°
2026-04-21 19:08 47.66977 2.32839 27040 ft 509 kts 170°
2026-04-21 19:09 47.63509 2.34079 27432 ft 511 kts 170°
2026-04-21 19:09 47.60055 2.35286 27946 ft 510 kts 171°
2026-04-21 19:09 47.56606 2.36466 28539 ft 508 kts 171°
2026-04-21 19:09 47.53177 2.37614 29138 ft 505 kts 171°
2026-04-21 19:10 47.49783 2.38730 29670 ft 503 kts 172°
2026-04-21 19:10 47.46349 2.39846 30142 ft 502 kts 172°
2026-04-21 19:10 47.42947 2.40943 30612 ft 501 kts 172°
2026-04-21 19:10 47.39534 2.42037 31099 ft 499 kts 173°
2026-04-21 19:11 47.36158 2.43117 31587 ft 497 kts 173°
2026-04-21 19:11 47.32812 2.44185 32006 ft 497 kts 173°
2026-04-21 19:11 47.29454 2.45256 32468 ft 495 kts 173°
2026-04-21 19:11 47.26121 2.46319 32952 ft 492 kts 173°
2026-04-21 19:12 47.23866 2.47038 33237 ft 491 kts 173°
2026-04-21 19:12 47.19459 2.48438 33729 ft 490 kts 173°
2026-04-21 19:12 47.16114 2.49499 34177 ft 487 kts 173°
2026-04-21 19:12 47.12851 2.50536 34558 ft 486 kts 173°
2026-04-21 19:13 47.09546 2.51583 34937 ft 484 kts 173°
2026-04-21 19:13 47.06251 2.52627 35265 ft 482 kts 173°
2026-04-21 19:13 47.02981 2.53660 35525 ft 482 kts 173°
2026-04-21 19:13 46.99714 2.54691 35742 ft 482 kts 173°
2026-04-21 19:14 46.96430 2.55725 35963 ft 482 kts 173°
2026-04-21 19:14 46.93115 2.56767 36202 ft 482 kts 173°
2026-04-21 19:14 46.89905 2.57777 36496 ft 479 kts 173°
2026-04-21 19:14 46.86647 2.58802 36753 ft 477 kts 173°
2026-04-21 19:15 46.83385 2.59827 36981 ft 476 kts 172°
2026-04-21 19:15 46.76932 2.61847 37003 ft 477 kts 173°
2026-04-21 19:16 46.70463 2.63868 37004 ft 478 kts 173°
2026-04-21 19:16 46.63964 2.65896 36996 ft 474 kts 173°
2026-04-21 19:17 46.54293 2.68903 37000 ft 476 kts 173°
2026-04-21 19:17 46.47813 2.70910 36992 ft 475 kts 173°
2026-04-21 19:18 46.41400 2.72893 36991 ft 475 kts 173°
2026-04-21 19:18 46.34939 2.74884 36985 ft 474 kts 173°
2026-04-21 19:19 46.28498 2.76866 36982 ft 475 kts 173°
2026-04-21 19:19 46.22039 2.78848 36977 ft 475 kts 173°
2026-04-21 19:20 46.15578 2.80827 36977 ft 475 kts 173°
2026-04-21 19:20 46.09146 2.82791 36970 ft 474 kts 173°
2026-04-21 19:21 46.02710 2.84754 36975 ft 473 kts 173°
2026-04-21 19:21 45.96285 2.86704 36970 ft 475 kts 173°
2026-04-21 19:22 45.89817 2.88666 36973 ft 474 kts 173°
2026-04-21 19:22 45.83380 2.90614 36973 ft 472 kts 173°
2026-04-21 19:23 45.76989 2.92544 36982 ft 473 kts 173°
2026-04-21 19:23 45.70578 2.94474 36975 ft 471 kts 173°
2026-04-21 19:24 45.64150 2.96405 36974 ft 471 kts 173°
2026-04-21 19:24 45.57723 2.98328 36975 ft 472 kts 173°
2026-04-21 19:25 45.51366 3.00230 36971 ft 470 kts 173°
2026-04-21 19:25 45.44960 3.02142 36976 ft 470 kts 173°
2026-04-21 19:26 45.38560 3.04045 36969 ft 471 kts 173°
2026-04-21 19:26 45.32149 3.05949 36964 ft 470 kts 173°
2026-04-21 19:27 45.25761 3.07852 36959 ft 471 kts 171°
2026-04-21 19:27 45.19477 3.10586 36960 ft 476 kts 164°
2026-04-21 19:28 45.13296 3.14040 36956 ft 476 kts 162°
2026-04-21 19:28 45.07177 3.17582 36957 ft 476 kts 162°
2026-04-21 19:29 45.01062 3.21051 36956 ft 475 kts 162°
2026-04-21 19:29 44.94920 3.24460 36964 ft 476 kts 163°
2026-04-21 19:30 44.88773 3.27828 36963 ft 475 kts 163°
2026-04-21 19:30 44.82619 3.31177 36965 ft 475 kts 163°
2026-04-21 19:31 44.76447 3.34525 36968 ft 473 kts 163°
2026-04-21 19:31 44.70311 3.37846 36969 ft 474 kts 163°
2026-04-21 19:32 44.64193 3.41153 36968 ft 473 kts 163°
2026-04-21 19:32 44.58058 3.44461 36966 ft 474 kts 163°
2026-04-21 19:33 44.51910 3.47767 36965 ft 475 kts 163°
2026-04-21 19:33 44.45735 3.51081 36964 ft 474 kts 163°
2026-04-21 19:34 44.39585 3.54375 36959 ft 474 kts 163°
2026-04-21 19:34 44.33452 3.57653 36961 ft 474 kts 163°
2026-04-21 19:35 44.24209 3.62576 36956 ft 474 kts 163°
2026-04-21 19:36 44.18066 3.65838 36956 ft 474 kts 164°
2026-04-21 19:36 44.11916 3.69099 36946 ft 473 kts 163°
2026-04-21 19:37 44.05787 3.72340 36935 ft 473 kts 163°
2026-04-21 19:37 43.99654 3.75575 36926 ft 475 kts 163°
2026-04-21 19:38 43.93467 3.78831 36916 ft 474 kts 163°
2026-04-21 19:38 43.88330 3.81530 36909 ft 473 kts 163°
2026-04-21 19:39 43.81177 3.85280 36903 ft 474 kts 164°
2026-04-21 19:39 43.75022 3.88500 36902 ft 473 kts 164°
2026-04-21 19:40 43.68856 3.91719 36901 ft 473 kts 164°
2026-04-21 19:40 43.62723 3.94919 36901 ft 475 kts 162°
2026-04-21 19:41 43.56893 3.99316 36898 ft 483 kts 143°
2026-04-21 19:41 43.52059 4.05849 36897 ft 488 kts 134°
2026-04-21 19:42 43.47588 4.12865 36889 ft 488 kts 133°
2026-04-21 19:42 43.43179 4.19935 36891 ft 488 kts 133°
2026-04-21 19:43 43.38712 4.26990 36886 ft 488 kts 133°
2026-04-21 19:43 43.34241 4.33942 36884 ft 489 kts 133°
2026-04-21 19:44 43.29710 4.40920 36882 ft 489 kts 133°
2026-04-21 19:44 43.25167 4.47880 36885 ft 490 kts 133°
2026-04-21 19:45 43.20633 4.54810 36885 ft 489 kts 134°
2026-04-21 19:45 43.16102 4.61717 36885 ft 491 kts 133°
2026-04-21 19:46 43.11542 4.68654 36885 ft 491 kts 134°
2026-04-21 19:46 43.06818 4.75404 36882 ft 488 kts 142°
2026-04-21 19:46 43.04125 4.78076 36882 ft 481 kts 155°
2026-04-21 19:47 43.01081 4.80000 36890 ft 476 kts 163°
2026-04-21 19:47 42.94860 4.82916 36881 ft 474 kts 167°
2026-04-21 19:48 42.88569 4.85552 36881 ft 472 kts 167°
2026-04-21 19:48 42.82298 4.88190 36881 ft 474 kts 167°
2026-04-21 19:49 42.75990 4.90899 36885 ft 472 kts 167°
2026-04-21 19:49 42.69711 4.93490 36880 ft 472 kts 170°
2026-04-21 19:50 42.64454 4.95201 36886 ft 468 kts 172°
2026-04-21 19:50 42.57004 4.97420 36883 ft 469 kts 172°
2026-04-21 19:51 42.50639 4.99332 36879 ft 469 kts 172°
2026-04-21 19:51 42.44294 5.01278 36876 ft 469 kts 171°
2026-04-21 19:52 42.37957 5.03249 36878 ft 468 kts 171°
2026-04-21 19:52 42.31627 5.05231 36889 ft 468 kts 171°
2026-04-21 19:53 42.25293 5.07215 36893 ft 467 kts 171°
2026-04-21 19:53 42.18964 5.09197 36896 ft 466 kts 171°
2026-04-21 19:54 42.12666 5.11164 36892 ft 468 kts 171°
2026-04-21 19:54 42.06358 5.13132 36895 ft 466 kts 170°
2026-04-21 19:55 42.00043 5.15098 36902 ft 466 kts 171°
2026-04-21 19:55 41.93711 5.17065 36905 ft 466 kts 170°
2026-04-21 19:56 41.87408 5.19018 36905 ft 465 kts 170°
2026-04-21 19:56 41.81121 5.20962 36908 ft 464 kts 170°
2026-04-21 19:57 41.74854 5.22896 36903 ft 465 kts 170°
2026-04-21 19:57 41.68550 5.24838 36904 ft 465 kts 170°
2026-04-21 19:58 41.62257 5.26958 36897 ft 468 kts 166°
2026-04-21 19:58 41.56099 5.29798 36896 ft 469 kts 162°
2026-04-21 19:59 41.50029 5.32854 36898 ft 468 kts 162°
2026-04-21 19:59 41.43887 5.35925 36899 ft 468 kts 162°
2026-04-21 20:00 41.37800 5.38904 36893 ft 468 kts 163°
2026-04-21 20:00 41.31668 5.41862 36896 ft 469 kts 163°
2026-04-21 20:01 41.25523 5.44804 36900 ft 468 kts 163°
2026-04-21 20:01 41.19416 5.47716 36896 ft 467 kts 163°
2026-04-21 20:02 41.13282 5.50634 36896 ft 468 kts 163°
2026-04-21 20:02 41.07142 5.53549 36903 ft 468 kts 163°
2026-04-21 20:03 41.01046 5.56438 36905 ft 469 kts 163°
2026-04-21 20:03 40.94871 5.59358 36905 ft 468 kts 163°
2026-04-21 20:04 40.88712 5.62265 36915 ft 468 kts 163°
2026-04-21 20:04 40.82554 5.65167 36923 ft 467 kts 164°
2026-04-21 20:05 40.76452 5.68035 36925 ft 466 kts 164°
2026-04-21 20:05 40.70359 5.70894 36925 ft 467 kts 164°
2026-04-21 20:06 40.64226 5.73766 36921 ft 468 kts 164°
2026-04-21 20:06 40.58095 5.76631 36924 ft 468 kts 164°
2026-04-21 20:07 40.51947 5.79499 36926 ft 467 kts 164°
2026-04-21 20:07 40.45841 5.82343 36924 ft 466 kts 164°
2026-04-21 20:08 40.39799 5.85571 36923 ft 469 kts 159°
2026-04-21 20:08 40.33916 5.89286 36923 ft 471 kts 157°
2026-04-21 20:09 40.28041 5.93097 36923 ft 471 kts 158°
2026-04-21 20:09 40.22125 5.96883 36923 ft 471 kts 158°
2026-04-21 20:10 40.16233 6.00597 36923 ft 471 kts 158°
2026-04-21 20:10 40.10351 6.04271 36924 ft 470 kts 158°
2026-04-21 20:11 40.04478 6.07921 36923 ft 469 kts 158°
2026-04-21 20:11 39.98566 6.11583 36924 ft 470 kts 158°
2026-04-21 20:12 39.92671 6.15228 37122 ft 472 kts 158°
2026-04-21 20:12 39.89729 6.17044 36927 ft 468 kts 158°
2026-04-21 20:12 39.86794 6.18858 36927 ft 465 kts 158°
2026-04-21 20:13 39.80913 6.22478 36926 ft 469 kts 158°
2026-04-21 20:13 39.75028 6.26096 36925 ft 468 kts 158°
2026-04-21 20:14 39.69173 6.29689 36924 ft 469 kts 158°
2026-04-21 20:14 39.63273 6.33304 36925 ft 469 kts 158°
2026-04-21 20:15 39.57371 6.36911 36922 ft 470 kts 158°
2026-04-21 20:15 39.51456 6.40522 36919 ft 469 kts 158°
2026-04-21 20:16 39.45559 6.44114 36918 ft 470 kts 158°
2026-04-21 20:16 39.39643 6.47710 36912 ft 470 kts 158°
2026-04-21 20:17 39.33761 6.51279 36911 ft 471 kts 158°
2026-04-21 20:17 39.27806 6.54886 36909 ft 470 kts 158°
2026-04-21 20:18 39.22897 6.57855 36909 ft 470 kts 158°
2026-04-21 20:18 39.15997 6.62020 36907 ft 470 kts 158°
2026-04-21 20:19 39.10090 6.65576 36911 ft 470 kts 159°
2026-04-21 20:19 39.04135 6.69153 36919 ft 472 kts 159°
2026-04-21 20:20 38.98200 6.72685 36922 ft 471 kts 160°
2026-04-21 20:20 38.92187 6.75923 36925 ft 470 kts 162°
2026-04-21 20:21 38.86091 6.79034 36925 ft 470 kts 163°
2026-04-21 20:21 38.80049 6.82111 36926 ft 469 kts 162°
2026-04-21 20:22 38.73979 6.85222 36925 ft 471 kts 162°
2026-04-21 20:22 38.64842 6.89933 36925 ft 472 kts 162°
2026-04-21 20:23 38.58768 6.93070 36925 ft 472 kts 162°
2026-04-21 20:23 38.52701 6.96201 36926 ft 472 kts 162°
2026-04-21 20:24 38.46603 6.99343 36926 ft 473 kts 162°
2026-04-21 20:24 38.40545 7.02457 36925 ft 472 kts 162°
2026-04-21 20:25 38.34453 7.05584 36926 ft 472 kts 162°
2026-04-21 20:25 38.28363 7.08703 36925 ft 472 kts 162°
2026-04-21 20:26 38.22303 7.11800 36925 ft 473 kts 162°
2026-04-21 20:26 38.16199 7.14917 36925 ft 473 kts 162°
2026-04-21 20:27 38.10068 7.18041 36924 ft 473 kts 162°
2026-04-21 20:27 38.03996 7.21130 36923 ft 474 kts 163°
2026-04-21 20:28 37.97895 7.24228 36924 ft 473 kts 163°
2026-04-21 20:28 37.91783 7.27323 36921 ft 474 kts 163°
2026-04-21 20:29 37.85622 7.30440 36921 ft 475 kts 162°
2026-04-21 20:29 37.79519 7.33521 36918 ft 475 kts 163°
2026-04-21 20:30 37.73388 7.36611 36924 ft 475 kts 162°
2026-04-21 20:30 37.67233 7.39710 36919 ft 475 kts 163°
2026-04-21 20:31 37.61079 7.42800 36919 ft 475 kts 163°
2026-04-21 20:31 37.54951 7.45873 36919 ft 476 kts 163°
2026-04-21 20:32 37.48811 7.48945 36922 ft 475 kts 163°
2026-04-21 20:32 37.42678 7.52009 36916 ft 477 kts 163°
2026-04-21 20:33 37.36531 7.55074 36916 ft 477 kts 163°
2026-04-21 20:33 37.30357 7.58146 36914 ft 478 kts 163°
2026-04-21 20:34 37.24184 7.61216 36912 ft 478 kts 163°
2026-04-21 20:34 37.17988 7.64290 36914 ft 479 kts 163°
2026-04-21 20:35 37.11827 7.67342 36914 ft 477 kts 163°
2026-04-21 20:35 37.05643 7.70399 36918 ft 478 kts 163°
2026-04-21 20:36 36.99469 7.73443 36918 ft 479 kts 163°
2026-04-21 20:36 36.93272 7.76497 36915 ft 479 kts 163°
2026-04-21 20:37 36.87071 7.79593 36907 ft 479 kts 161°
2026-04-21 20:37 36.81349 7.83970 36915 ft 490 kts 143°
2026-04-21 20:38 36.76398 7.89818 36908 ft 494 kts 137°
2026-04-21 20:38 36.71691 7.96043 36913 ft 493 kts 135°
2026-04-21 20:39 36.67040 8.02272 36928 ft 493 kts 135°
2026-04-21 20:39 36.62325 8.08488 36940 ft 494 kts 136°
2026-04-21 20:40 36.57584 8.14653 36981 ft 493 kts 136°
2026-04-21 20:40 36.52845 8.20766 37009 ft 492 kts 136°
2026-04-21 20:41 36.48099 8.26866 37034 ft 492 kts 136°
2026-04-21 20:41 36.43352 8.32940 37007 ft 492 kts 137°
2026-04-21 20:42 36.38322 8.38637 36998 ft 488 kts 145°
2026-04-21 20:42 36.32783 8.43482 36996 ft 487 kts 150°
2026-04-21 20:43 36.27117 8.48021 36997 ft 486 kts 151°
2026-04-21 20:43 36.21448 8.52542 37002 ft 486 kts 150°
2026-04-21 20:44 36.15777 8.57122 36995 ft 486 kts 150°
2026-04-21 20:44 36.10162 8.61702 36999 ft 486 kts 150°
2026-04-21 20:45 36.04519 8.66326 36997 ft 486 kts 150°
2026-04-21 20:45 35.98881 8.70948 37001 ft 488 kts 150°
2026-04-21 20:46 35.93225 8.75580 37011 ft 488 kts 150°
2026-04-21 20:46 35.87588 8.80189 37015 ft 487 kts 150°
2026-04-21 20:47 35.81955 8.84788 37024 ft 487 kts 150°
2026-04-21 20:47 35.76259 8.89430 37026 ft 486 kts 150°
2026-04-21 20:48 35.70616 8.94017 37035 ft 488 kts 150°
2026-04-21 20:48 35.64951 8.98615 37034 ft 488 kts 150°
2026-04-21 20:49 35.59298 9.03199 37029 ft 488 kts 150°
2026-04-21 20:49 35.53654 9.07756 37020 ft 487 kts 150°
2026-04-21 20:50 35.47941 9.12161 37011 ft 486 kts 152°
2026-04-21 20:50 35.42133 9.16507 37000 ft 486 kts 152°
2026-04-21 20:51 35.36365 9.20811 36990 ft 487 kts 152°
2026-04-21 20:51 35.30637 9.25102 36990 ft 486 kts 152°
2026-04-21 20:52 35.24868 9.29430 36979 ft 488 kts 152°
2026-04-21 20:52 35.19072 9.33780 36680 ft 488 kts 152°
2026-04-21 20:53 35.16208 9.35928 36387 ft 485 kts 152°
2026-04-21 20:53 35.13335 9.38084 36096 ft 482 kts 151°
2026-04-21 20:53 35.10471 9.40231 35633 ft 480 kts 152°
2026-04-21 20:53 35.07626 9.42361 34955 ft 479 kts 152°
2026-04-21 20:54 35.04792 9.44479 34223 ft 479 kts 151°
2026-04-21 20:54 35.01984 9.46576 33518 ft 480 kts 151°
2026-04-21 20:54 34.99145 9.48693 32762 ft 481 kts 151°
2026-04-21 20:54 34.96294 9.50816 31968 ft 483 kts 150°
2026-04-21 20:55 34.93398 9.52971 31146 ft 486 kts 150°
2026-04-21 20:55 34.90521 9.55112 30292 ft 488 kts 150°
2026-04-21 20:55 34.87645 9.57251 29422 ft 491 kts 150°
2026-04-21 20:55 34.84713 9.59429 28507 ft 493 kts 150°
2026-04-21 20:56 34.81795 9.61596 27843 ft 490 kts 150°
2026-04-21 20:56 34.78926 9.63727 27185 ft 486 kts 150°
2026-04-21 20:56 34.76037 9.65873 26543 ft 482 kts 151°
2026-04-21 20:56 34.73167 9.68001 25876 ft 479 kts 151°
2026-04-21 20:57 34.70346 9.70091 25195 ft 476 kts 151°
2026-04-21 20:57 34.67533 9.72172 24494 ft 473 kts 151°
2026-04-21 20:57 34.64743 9.74235 23786 ft 470 kts 151°
2026-04-21 20:57 34.61972 9.76281 23086 ft 466 kts 151°
2026-04-21 20:58 34.59213 9.78317 22394 ft 462 kts 151°
2026-04-21 20:58 34.56508 9.80311 21713 ft 458 kts 151°
2026-04-21 20:58 34.53787 9.82315 21021 ft 454 kts 151°
2026-04-21 20:58 34.51104 9.84290 20339 ft 450 kts 151°
2026-04-21 20:59 34.48445 9.86245 19651 ft 447 kts 151°
2026-04-21 20:59 34.45787 9.88198 18964 ft 443 kts 150°
2026-04-21 20:59 34.43211 9.90158 18288 ft 439 kts 147°
2026-04-21 20:59 34.40787 9.92423 17618 ft 437 kts 140°
2026-04-21 21:00 34.38685 9.95029 16939 ft 434 kts 132°
2026-04-21 21:00 34.36798 9.97803 16271 ft 430 kts 129°
2026-04-21 21:00 34.35007 10.00684 15595 ft 427 kts 127°
2026-04-21 21:00 34.33269 10.03596 14934 ft 423 kts 126°
2026-04-21 21:01 34.31582 10.06451 14232 ft 420 kts 126°
2026-04-21 21:01 34.29884 10.09306 13566 ft 416 kts 126°
2026-04-21 21:01 34.28194 10.12115 12894 ft 412 kts 126°
2026-04-21 21:01 34.26516 10.14871 12249 ft 409 kts 126°
2026-04-21 21:02 34.24834 10.17610 11574 ft 406 kts 126°
2026-04-21 21:02 34.23157 10.20327 10959 ft 401 kts 126°
2026-04-21 21:02 34.21511 10.22983 10695 ft 386 kts 126°
2026-04-21 21:02 34.19938 10.25516 10482 ft 372 kts 126°
2026-04-21 21:03 34.18422 10.27958 10295 ft 358 kts 125°
2026-04-21 21:03 34.16948 10.30331 10191 ft 343 kts 125°
2026-04-21 21:03 34.15562 10.32562 10091 ft 329 kts 125°
2026-04-21 21:03 34.14209 10.34741 9983 ft 317 kts 124°
2026-04-21 21:04 34.12923 10.36811 9909 ft 302 kts 124°
2026-04-21 21:04 34.11687 10.38800 9906 ft 287 kts 124°
2026-04-21 21:04 34.10497 10.40717 9916 ft 285 kts 124°
2026-04-21 21:04 34.09321 10.42614 9918 ft 286 kts 124°
2026-04-21 21:05 34.08126 10.44538 9920 ft 286 kts 124°
2026-04-21 21:05 34.06921 10.46472 9913 ft 285 kts 124°
2026-04-21 21:05 34.05734 10.48378 9919 ft 286 kts 124°
2026-04-21 21:05 34.04544 10.50285 9911 ft 285 kts 124°
2026-04-21 21:06 34.03336 10.52183 9913 ft 286 kts 129°
2026-04-21 21:06 34.01750 10.53638 9919 ft 291 kts 156°
2026-04-21 21:06 33.99790 10.54162 9920 ft 293 kts 174°
2026-04-21 21:06 33.97739 10.54293 9912 ft 292 kts 178°
2026-04-21 21:07 33.95716 10.54377 9905 ft 284 kts 176°
2026-04-21 21:07 33.93802 10.54499 9912 ft 269 kts 175°
2026-04-21 21:07 33.91977 10.54653 9915 ft 259 kts 174°
2026-04-21 21:07 33.90164 10.54830 9913 ft 262 kts 174°
2026-04-21 21:08 33.88343 10.55019 9902 ft 262 kts 174°
2026-04-21 21:08 33.86519 10.55158 9914 ft 262 kts 180°
2026-04-21 21:08 33.84723 10.54796 9896 ft 263 kts 206°
2026-04-21 21:08 33.83321 10.53466 9922 ft 258 kts 232°
2026-04-21 21:09 33.82183 10.51795 9899 ft 259 kts 231°
2026-04-21 21:09 33.80991 10.50178 9897 ft 255 kts 229°
2026-04-21 21:09 33.79782 10.48615 9918 ft 257 kts 231°
2026-04-21 21:09 33.78769 10.46847 9901 ft 255 kts 251°
2026-04-21 21:10 33.78547 10.44789 9913 ft 249 kts 283°
2026-04-21 21:10 33.79206 10.42913 9911 ft 245 kts 309°
2026-04-21 21:10 33.80390 10.41481 9907 ft 242 kts 325°
2026-04-21 21:10 33.81903 10.40606 9902 ft 240 kts 351°
2026-04-21 21:11 33.83550 10.40720 9917 ft 239 kts 18°
2026-04-21 21:11 33.85028 10.41618 9911 ft 242 kts 36°
2026-04-21 21:11 33.86172 10.43101 9914 ft 244 kts 60°
2026-04-21 21:11 33.86622 10.45072 9918 ft 246 kts 83°
2026-04-21 21:12 33.86694 10.47138 9905 ft 248 kts 85°
2026-04-21 21:12 33.86741 10.49202 9916 ft 248 kts 85°
2026-04-21 21:12 33.86809 10.51257 9894 ft 247 kts 84°
2026-04-21 21:12 33.86894 10.53335 9910 ft 248 kts 84°
2026-04-21 21:13 33.86964 10.55404 9912 ft 248 kts 87°
2026-04-21 21:13 33.86718 10.57435 9888 ft 252 kts 109°
2026-04-21 21:13 33.85675 10.59146 9907 ft 259 kts 142°
2026-04-21 21:13 33.84037 10.60031 9915 ft 262 kts 169°
2026-04-21 21:14 33.82204 10.60071 9914 ft 262 kts 191°
2026-04-21 21:14 33.80553 10.59233 9920 ft 260 kts 222°
2026-04-21 21:14 33.79484 10.57533 9922 ft 254 kts 251°
2026-04-21 21:14 33.79105 10.55508 9923 ft 250 kts 268°
2026-04-21 21:15 33.79014 10.53427 9918 ft 250 kts 270°
2026-04-21 21:15 33.78946 10.51333 9915 ft 250 kts 270°
2026-04-21 21:15 33.78868 10.49237 9914 ft 250 kts 270°
2026-04-21 21:15 33.78782 10.47171 9915 ft 251 kts 269°
2026-04-21 21:16 33.78731 10.45069 9910 ft 250 kts 275°
2026-04-21 21:16 33.79073 10.43066 9908 ft 246 kts 299°
2026-04-21 21:16 33.80171 10.41545 9916 ft 242 kts 329°
2026-04-21 21:16 33.81736 10.40788 9918 ft 241 kts 349°
2026-04-21 21:17 33.83384 10.40675 9905 ft 240 kts
2026-04-21 21:17 33.84930 10.41429 9901 ft 240 kts 38°
2026-04-21 21:17 33.86011 10.42948 9914 ft 244 kts 59°
2026-04-21 21:17 33.86600 10.44849 9893 ft 246 kts 79°
2026-04-21 21:18 33.86736 10.46908 9900 ft 247 kts 85°
2026-04-21 21:18 33.86768 10.48976 9906 ft 248 kts 86°
2026-04-21 21:18 33.86813 10.51040 9889 ft 247 kts 85°
2026-04-21 21:18 33.86886 10.53123 9904 ft 248 kts 84°
2026-04-21 21:19 33.86960 10.55182 9907 ft 248 kts 86°
2026-04-21 21:19 33.86771 10.57241 9889 ft 251 kts 106°
2026-04-21 21:19 33.85820 10.59002 9903 ft 259 kts 139°
2026-04-21 21:19 33.84204 10.59979 9909 ft 262 kts 168°
2026-04-21 21:20 33.82396 10.60074 9910 ft 261 kts 189°
2026-04-21 21:20 33.80706 10.59324 9915 ft 260 kts 218°
2026-04-21 21:20 33.79567 10.57683 9911 ft 255 kts 249°
2026-04-21 21:20 33.79151 10.55657 9909 ft 250 kts 268°
2026-04-21 21:21 33.79061 10.53573 9907 ft 250 kts 270°
2026-04-21 21:21 33.78992 10.51494 9902 ft 250 kts 270°
2026-04-21 21:21 33.78912 10.49404 9904 ft 249 kts 269°
2026-04-21 21:21 33.78824 10.47320 9908 ft 251 kts 269°
2026-04-21 21:22 33.78762 10.45226 9902 ft 250 kts 274°
2026-04-21 21:22 33.79055 10.43211 9899 ft 246 kts 297°
2026-04-21 21:22 33.80107 10.41635 9908 ft 243 kts 327°
2026-04-21 21:22 33.81644 10.40836 9918 ft 241 kts 349°
2026-04-21 21:23 33.83295 10.40681 9906 ft 239 kts
2026-04-21 21:23 33.84849 10.41367 9906 ft 241 kts 36°
2026-04-21 21:23 33.85972 10.42869 9920 ft 244 kts 58°
2026-04-21 21:23 33.86584 10.44758 9903 ft 246 kts 78°
2026-04-21 21:24 33.86732 10.46800 9911 ft 247 kts 85°
2026-04-21 21:24 33.86766 10.48871 9913 ft 248 kts 86°
2026-04-21 21:24 33.86812 10.50953 9898 ft 247 kts 85°
2026-04-21 21:24 33.86882 10.53003 9909 ft 247 kts 84°
2026-04-21 21:25 33.86959 10.55082 9910 ft 248 kts 86°
2026-04-21 21:25 33.86795 10.57133 9893 ft 250 kts 105°
2026-04-21 21:25 33.85893 10.58912 9905 ft 258 kts 137°
2026-04-21 21:25 33.84292 10.59938 9910 ft 262 kts 167°
2026-04-21 21:26 33.82491 10.60061 9913 ft 262 kts 188°
2026-04-21 21:26 33.80779 10.59345 9912 ft 260 kts 218°
2026-04-21 21:26 33.79626 10.57756 9912 ft 255 kts 248°
2026-04-21 21:26 33.79191 10.55708 9916 ft 251 kts 268°
2026-04-21 21:27 33.79101 10.53640 9907 ft 251 kts 270°
2026-04-21 21:27 33.79030 10.51533 9906 ft 250 kts 269°
2026-04-21 21:27 33.78948 10.49461 9907 ft 249 kts 269°
2026-04-21 21:27 33.78859 10.47387 9773 ft 245 kts 269°
2026-04-21 21:28 33.78791 10.45340 9376 ft 248 kts 273°
2026-04-21 21:28 33.79059 10.43317 9035 ft 244 kts 296°
2026-04-21 21:28 33.81409 10.40964 8642 ft 216 kts 343°
2026-04-21 21:29 33.82865 10.40638 8325 ft 212 kts
2026-04-21 21:29 33.84293 10.41066 7941 ft 212 kts 29°
2026-04-21 21:29 33.85460 10.42115 7590 ft 212 kts 44°
2026-04-21 21:29 33.86319 10.43553 7196 ft 214 kts 67°
2026-04-21 21:30 33.86595 10.45308 6844 ft 214 kts 86°
2026-04-21 21:30 33.86629 10.47085 6492 ft 213 kts 86°
2026-04-21 21:30 33.86696 10.48854 6134 ft 213 kts 85°
2026-04-21 21:30 33.86778 10.50608 5789 ft 212 kts 85°
2026-04-21 21:31 33.86858 10.52393 5428 ft 211 kts 86°
2026-04-21 21:31 33.86932 10.54143 5090 ft 210 kts 86°
2026-04-21 21:31 33.86950 10.55881 4742 ft 210 kts 96°
2026-04-21 21:31 33.86486 10.57532 4347 ft 209 kts 130°
2026-04-21 21:32 33.85334 10.58531 4005 ft 206 kts 161°
2026-04-21 21:32 33.83940 10.58826 3699 ft 202 kts 181°
2026-04-21 21:32 33.82600 10.58433 3369 ft 201 kts 210°
2026-04-21 21:32 33.81552 10.57328 3080 ft 201 kts 236°
2026-04-21 21:33 33.81107 10.55775 2993 ft 201 kts 265°
2026-04-21 21:33 33.81267 10.54082 2994 ft 206 kts 287°
2026-04-21 21:33 33.82056 10.52667 2994 ft 209 kts 321°
2026-04-21 21:33 33.83379 10.51922 2940 ft 212 kts 348°
2026-04-21 21:34 33.84846 10.51894 2866 ft 211 kts 14°
2026-04-21 21:34 33.86123 10.52716 2787 ft 209 kts 47°
2026-04-21 21:34 33.86890 10.54178 2718 ft 205 kts 76°
2026-04-21 21:34 33.87048 10.55806 2651 ft 192 kts 94°
2026-04-21 21:35 33.87011 10.57404 2560 ft 192 kts 92°
2026-04-21 21:35 33.87042 10.59003 2497 ft 189 kts 89°
2026-04-21 21:35 33.87099 10.60562 2468 ft 186 kts 90°
2026-04-21 21:35 33.87141 10.62108 2246 ft 182 kts 90°
2026-04-21 21:36 33.87178 10.63607 2012 ft 179 kts 91°
2026-04-21 21:36 33.87218 10.65099 1772 ft 174 kts 91°
2026-04-21 21:36 33.87257 10.66478 1538 ft 162 kts 92°
2026-04-21 21:36 33.87291 10.67772 1378 ft 147 kts 92°
2026-04-21 21:37 33.87321 10.68993 1171 ft 145 kts 92°
2026-04-21 21:37 33.87353 10.70190 969 ft 142 kts 92°
2026-04-21 21:37 33.87383 10.71394 783 ft 142 kts 91°
2026-04-21 21:37 33.87413 10.72582 598 ft 142 kts 91°
2026-04-21 21:38 33.87444 10.73753 414 ft 141 kts 91°
2026-04-21 21:38 33.87477 10.74940 220 ft 141 kts 90°
2026-04-21 21:38 33.87506 10.76115 65 ft 140 kts 91°
2026-04-21 21:38 33.87529 10.77205 22 ft 108 kts 88°
2026-04-21 21:39 33.87552 10.77984 22 ft 82 kts 88°
2026-04-21 21:39 33.87563 10.78435 22 ft 31 kts 88°
2026-04-21 21:39 33.87538 10.78593 22 ft 15 kts 143°
2026-04-21 21:39 33.87439 10.78594 22 ft 14 kts 201°
2026-04-21 21:40 33.87396 10.78503 22 ft 13 kts 270°
2026-04-21 21:40 33.87396 10.78393 22 ft 12 kts 270°
2026-04-21 21:40 33.87394 10.78290 22 ft 12 kts 269°
2026-04-21 21:40 33.87399 10.78192 22 ft 11 kts 269°
2026-04-21 21:41 33.87396 10.78099 22 ft 10 kts 268°
2026-04-21 21:41 33.87394 10.78012 22 ft 10 kts 268°
2026-04-21 21:41 33.87392 10.77931 22 ft 9 kts 268°
2026-04-21 21:41 33.87389 10.77856 22 ft 8 kts 268°
2026-04-21 21:42 33.87387 10.77786 22 ft 8 kts 268°
2026-04-21 21:42 33.87385 10.77721 22 ft 7 kts 268°
2026-04-21 21:42 33.87384 10.77662 22 ft 6 kts 270°
2026-04-21 21:42 33.87384 10.77607 22 ft 6 kts 270°
2026-04-21 21:43 33.87383 10.77558 22 ft 5 kts 269°
2026-04-21 21:43 33.87367 10.77530 22 ft 4 kts 188°
2026-04-21 21:43 33.87341 10.77530 22 ft 3 kts 179°
2026-04-21 21:43 33.87322 10.77530 22 ft 2 kts 178°
2026-04-21 21:44 33.87319 10.77530 22 ft 0 kts 178°